UAL2014 KDEN-KBOI

Flight info

Callsign UAL2014
Flight time 1h 29m
Altitude 36000
Route ZIMMR4 CHNGY REAPS KOURT4
Aircraft A320/M-SDE3FGHIRWY/LB1

Departure

Time 2026-05-06 18:36
Airport Denver International Airport (KDEN)

Arrival

Time 2026-05-06 20:06
Airport Boise Air Terminal/Gowen Field (KBOI)
Time Latitude Longitude Altitude Speed Heading
2026-05-06 17:49 39.85809 -104.67080 5357 ft 0 kts
2026-05-06 18:11 39.85797 -104.67081 5363 ft 4 kts
2026-05-06 18:11 39.85770 -104.67080 5364 ft 4 kts 358°
2026-05-06 18:11 39.85746 -104.67079 5365 ft 3 kts 358°
2026-05-06 18:11 39.85733 -104.67079 5365 ft 0 kts 358°
2026-05-06 18:13 39.85736 -104.67081 5362 ft 1 kts 336°
2026-05-06 18:13 39.85738 -104.67092 5363 ft 1 kts 269°
2026-05-06 18:14 39.85735 -104.67127 5363 ft 7 kts 265°
2026-05-06 18:14 39.85696 -104.67186 5365 ft 12 kts 220°
2026-05-06 18:14 39.85666 -104.67303 5366 ft 17 kts 272°
2026-05-06 18:14 39.85666 -104.67462 5366 ft 18 kts 270°
2026-05-06 18:15 39.85668 -104.67633 5366 ft 20 kts 270°
2026-05-06 18:15 39.85669 -104.67822 5366 ft 22 kts 269°
2026-05-06 18:15 39.85669 -104.68011 5366 ft 21 kts 270°
2026-05-06 18:15 39.85678 -104.68164 5362 ft 12 kts 296°
2026-05-06 18:16 39.85758 -104.68198 5364 ft 13 kts 357°
2026-05-06 18:16 39.85778 -104.68257 5364 ft 9 kts 269°
2026-05-06 18:16 39.85778 -104.68323 5364 ft 0 kts 270°
2026-05-06 18:20 39.85778 -104.68330 5366 ft 1 kts 270°
2026-05-06 18:20 39.85778 -104.68351 5364 ft 3 kts 270°
2026-05-06 18:20 39.85773 -104.68381 5365 ft 4 kts 240°
2026-05-06 18:20 39.85747 -104.68395 5365 ft 5 kts 187°
2026-05-06 18:21 39.85707 -104.68396 5365 ft 6 kts 181°
2026-05-06 18:21 39.85657 -104.68397 5364 ft 8 kts 180°
2026-05-06 18:21 39.85598 -104.68398 5365 ft 9 kts 181°
2026-05-06 18:21 39.85529 -104.68400 5365 ft 11 kts 180°
2026-05-06 18:22 39.85451 -104.68400 5365 ft 12 kts 181°
2026-05-06 18:22 39.85365 -104.68399 5365 ft 13 kts 180°
2026-05-06 18:22 39.85271 -104.68401 5365 ft 14 kts 181°
2026-05-06 18:22 39.85210 -104.68428 5366 ft 9 kts 233°
2026-05-06 18:23 39.85203 -104.68513 5366 ft 10 kts 268°
2026-05-06 18:23 39.85202 -104.68606 5366 ft 11 kts 269°
2026-05-06 18:23 39.85202 -104.68710 5364 ft 12 kts 270°
2026-05-06 18:23 39.85200 -104.68828 5366 ft 14 kts 268°
2026-05-06 18:24 39.85198 -104.68958 5366 ft 15 kts 269°
2026-05-06 18:24 39.85195 -104.69099 5366 ft 16 kts 269°
2026-05-06 18:24 39.85198 -104.69248 5366 ft 17 kts 271°
2026-05-06 18:24 39.85202 -104.69403 5363 ft 17 kts 271°
2026-05-06 18:25 39.85202 -104.69563 5366 ft 17 kts 270°
2026-05-06 18:25 39.85272 -104.69653 5364 ft 17 kts 359°
2026-05-06 18:25 39.85415 -104.69650 5365 ft 27 kts 359°
2026-05-06 18:25 39.85675 -104.69649 5366 ft 46 kts 360°
2026-05-06 18:26 39.86031 -104.69642 5365 ft 56 kts
2026-05-06 18:26 39.86377 -104.69643 5366 ft 45 kts
2026-05-06 18:26 39.86671 -104.69637 5364 ft 40 kts
2026-05-06 18:26 39.86935 -104.69633 5365 ft 35 kts
2026-05-06 18:27 39.87164 -104.69620 5365 ft 31 kts 11°
2026-05-06 18:27 39.87347 -104.69542 5364 ft 15 kts 29°
2026-05-06 18:27 39.87381 -104.69476 5366 ft 12 kts 90°
2026-05-06 18:27 39.87307 -104.69420 5365 ft 9 kts 180°
2026-05-06 18:28 39.87229 -104.69421 5365 ft 13 kts 180°
2026-05-06 18:28 39.87121 -104.69421 5364 ft 17 kts 180°
2026-05-06 18:28 39.86989 -104.69423 5363 ft 19 kts 180°
2026-05-06 18:28 39.86900 -104.69424 5364 ft 20 kts 180°
2026-05-06 18:29 39.86768 -104.69427 5365 ft 17 kts 179°
2026-05-06 18:29 39.86665 -104.69426 5365 ft 13 kts 180°
2026-05-06 18:29 39.86593 -104.69427 5365 ft 8 kts 180°
2026-05-06 18:29 39.86582 -104.69427 5365 ft 0 kts 180°
2026-05-06 18:32 39.86562 -104.69427 5365 ft 15 kts 180°
2026-05-06 18:32 39.86358 -104.69429 5366 ft 33 kts 180°
2026-05-06 18:33 39.86144 -104.69429 5364 ft 29 kts 180°
2026-05-06 18:33 39.85956 -104.69433 5365 ft 25 kts 182°
2026-05-06 18:33 39.85790 -104.69437 5364 ft 22 kts 179°
2026-05-06 18:33 39.85645 -104.69434 5364 ft 19 kts 179°
2026-05-06 18:34 39.85522 -104.69434 5364 ft 16 kts 181°
2026-05-06 18:34 39.85415 -104.69438 5365 ft 14 kts 181°
2026-05-06 18:34 39.85329 -104.69441 5366 ft 12 kts 180°
2026-05-06 18:34 39.85233 -104.69450 5364 ft 14 kts 201°
2026-05-06 18:35 39.85202 -104.69547 5366 ft 11 kts 268°
2026-05-06 18:35 39.85236 -104.69641 5365 ft 15 kts 330°
2026-05-06 18:35 39.85385 -104.69655 5365 ft 40 kts
2026-05-06 18:35 39.85885 -104.69648 5366 ft 101 kts
2026-05-06 18:36 39.86761 -104.69639 5365 ft 148 kts
2026-05-06 18:36 39.87932 -104.69632 5365 ft 187 kts
2026-05-06 18:36 39.89240 -104.69630 5965 ft 189 kts
2026-05-06 18:36 39.90553 -104.69652 6852 ft 187 kts
2026-05-06 18:37 39.91891 -104.69715 7354 ft 202 kts 347°
2026-05-06 18:37 39.93106 -104.70752 7644 ft 225 kts 304°
2026-05-06 18:37 39.93734 -104.72730 7980 ft 251 kts 277°
2026-05-06 18:37 39.93827 -104.75106 8479 ft 273 kts 271°
2026-05-06 18:38 39.93852 -104.77621 9322 ft 281 kts 270°
2026-05-06 18:38 39.93860 -104.80191 10307 ft 285 kts 270°
2026-05-06 18:38 39.93861 -104.82786 11386 ft 288 kts 270°
2026-05-06 18:38 39.93862 -104.85400 12500 ft 290 kts 271°
2026-05-06 18:39 39.93868 -104.88064 13591 ft 295 kts 271°
2026-05-06 18:39 39.93877 -104.90751 14625 ft 298 kts 271°
2026-05-06 18:39 39.93885 -104.93458 15655 ft 299 kts 271°
2026-05-06 18:40 39.93898 -104.98894 17833 ft 300 kts 271°
2026-05-06 18:40 39.93900 -105.01607 18910 ft 300 kts 270°
2026-05-06 18:40 39.93904 -105.04338 19803 ft 302 kts 270°
2026-05-06 18:40 39.93909 -105.07086 20665 ft 305 kts 270°
2026-05-06 18:41 39.93914 -105.09858 21517 ft 308 kts 270°
2026-05-06 18:41 39.93917 -105.12660 22364 ft 311 kts 270°
2026-05-06 18:41 39.93920 -105.15511 23010 ft 321 kts 270°
2026-05-06 18:41 39.93924 -105.18522 23194 ft 343 kts 270°
2026-05-06 18:42 39.93932 -105.21701 23233 ft 368 kts 271°
2026-05-06 18:42 39.94158 -105.25180 23228 ft 392 kts 275°
2026-05-06 18:42 39.94446 -105.28819 23212 ft 414 kts 275°
2026-05-06 18:42 39.94743 -105.32577 23757 ft 419 kts 276°
2026-05-06 18:43 39.95039 -105.36336 25187 ft 402 kts 277°
2026-05-06 18:43 39.95312 -105.39836 26510 ft 386 kts 278°
2026-05-06 18:43 39.95592 -105.43394 26960 ft 392 kts 278°
2026-05-06 18:43 39.95872 -105.46928 27337 ft 397 kts 278°
2026-05-06 18:44 39.96157 -105.50532 27721 ft 402 kts 279°
2026-05-06 18:44 39.96441 -105.54171 28098 ft 405 kts 279°
2026-05-06 18:44 39.96724 -105.57846 28446 ft 409 kts 279°
2026-05-06 18:44 39.97007 -105.61560 28784 ft 413 kts 279°
2026-05-06 18:45 39.97291 -105.65297 29076 ft 416 kts 281°
2026-05-06 18:45 39.97556 -105.69090 29295 ft 423 kts 280°
2026-05-06 18:45 39.97776 -105.72943 29619 ft 428 kts 279°
2026-05-06 18:45 39.97963 -105.76785 29952 ft 432 kts 279°
2026-05-06 18:46 39.98139 -105.80713 30251 ft 435 kts 279°
2026-05-06 18:46 39.98314 -105.84678 30555 ft 438 kts 279°
2026-05-06 18:46 39.98494 -105.88677 30871 ft 440 kts 279°
2026-05-06 18:46 39.98680 -105.92639 31164 ft 442 kts 279°
2026-05-06 18:47 39.98874 -105.96673 31511 ft 442 kts 279°
2026-05-06 18:47 39.99065 -106.00639 31951 ft 441 kts 279°
2026-05-06 18:47 39.99261 -106.04663 32357 ft 441 kts 279°
2026-05-06 18:47 39.99455 -106.08645 32762 ft 441 kts 279°
2026-05-06 18:48 39.99645 -106.12610 33189 ft 440 kts 280°
2026-05-06 18:48 39.99834 -106.16612 33616 ft 440 kts 280°
2026-05-06 18:48 40.00017 -106.20579 34044 ft 439 kts 279°
2026-05-06 18:48 40.00200 -106.24571 34437 ft 438 kts 279°
2026-05-06 18:49 40.00380 -106.28540 34821 ft 437 kts 279°
2026-05-06 18:49 40.00558 -106.32436 35197 ft 435 kts 278°
2026-05-06 18:49 40.00738 -106.36425 35559 ft 434 kts 279°
2026-05-06 18:49 40.00914 -106.40319 35884 ft 433 kts 278°
2026-05-06 18:50 40.01257 -106.44214 36044 ft 432 kts 287°
2026-05-06 18:50 40.03418 -106.51507 36077 ft 432 kts 305°
2026-05-06 18:51 40.06566 -106.58233 36095 ft 435 kts 305°
2026-05-06 18:51 40.09702 -106.64960 36098 ft 436 kts 305°
2026-05-06 18:52 40.12856 -106.71743 36099 ft 435 kts 306°
2026-05-06 18:52 40.16004 -106.78524 36110 ft 435 kts 306°
2026-05-06 18:53 40.19137 -106.85311 36121 ft 435 kts 306°
2026-05-06 18:53 40.22245 -106.92056 36121 ft 435 kts 306°
2026-05-06 18:54 40.25372 -106.98844 36129 ft 435 kts 306°
2026-05-06 18:54 40.28504 -107.05644 36107 ft 435 kts 306°
2026-05-06 18:55 40.31615 -107.12444 36140 ft 435 kts 307°
2026-05-06 18:55 40.34729 -107.19245 36149 ft 435 kts 307°
2026-05-06 18:56 40.37827 -107.26025 36160 ft 435 kts 307°
2026-05-06 18:56 40.40929 -107.32845 36163 ft 435 kts 307°
2026-05-06 18:57 40.44030 -107.39671 36165 ft 435 kts 307°
2026-05-06 18:57 40.47111 -107.46462 36160 ft 434 kts 308°
2026-05-06 18:58 40.50203 -107.53293 36168 ft 434 kts 308°
2026-05-06 18:58 40.53288 -107.60118 36172 ft 433 kts 308°
2026-05-06 18:59 40.56365 -107.66944 36165 ft 433 kts 307°
2026-05-06 18:59 40.59415 -107.73733 36153 ft 433 kts 307°
2026-05-06 19:00 40.62474 -107.80568 36130 ft 433 kts 308°
2026-05-06 19:00 40.65521 -107.87373 36129 ft 433 kts 308°
2026-05-06 19:01 40.68573 -107.94210 36140 ft 433 kts 308°
2026-05-06 19:01 40.71626 -108.01072 36147 ft 433 kts 308°
2026-05-06 19:02 40.74676 -108.07919 36151 ft 432 kts 308°
2026-05-06 19:02 40.77696 -108.14727 36164 ft 432 kts 308°
2026-05-06 19:03 40.80725 -108.21578 36169 ft 432 kts 308°
2026-05-06 19:03 40.83756 -108.28443 36182 ft 432 kts 308°
2026-05-06 19:04 40.86786 -108.35315 36177 ft 432 kts 308°
2026-05-06 19:04 40.89788 -108.42146 36187 ft 432 kts 308°
2026-05-06 19:05 40.92795 -108.49016 36175 ft 431 kts 308°
2026-05-06 19:05 40.95792 -108.55872 36198 ft 430 kts 308°
2026-05-06 19:06 40.98278 -108.61562 36203 ft 429 kts 308°
2026-05-06 19:06 41.01756 -108.69531 36212 ft 429 kts 308°
2026-05-06 19:07 41.04236 -108.75231 36213 ft 429 kts 308°
2026-05-06 19:07 41.07208 -108.82099 36196 ft 428 kts 308°
2026-05-06 19:08 41.10174 -108.88952 36223 ft 428 kts 308°
2026-05-06 19:08 41.13112 -108.95765 36226 ft 427 kts 308°
2026-05-06 19:09 41.16066 -109.02623 36234 ft 427 kts 308°
2026-05-06 19:09 41.19017 -109.09470 36243 ft 427 kts 308°
2026-05-06 19:10 41.21961 -109.16318 36218 ft 427 kts 308°
2026-05-06 19:10 41.24874 -109.23130 36228 ft 426 kts 308°
2026-05-06 19:11 41.27802 -109.30000 36232 ft 426 kts 308°
2026-05-06 19:11 41.30723 -109.36863 36232 ft 426 kts 308°
2026-05-06 19:12 41.33644 -109.43731 36235 ft 426 kts 308°
2026-05-06 19:12 41.36565 -109.50618 36219 ft 426 kts 307°
2026-05-06 19:13 41.39468 -109.57490 36217 ft 426 kts 307°
2026-05-06 19:13 41.42369 -109.64369 36223 ft 426 kts 307°
2026-05-06 19:14 41.45249 -109.71214 36217 ft 426 kts 307°
2026-05-06 19:14 41.48145 -109.78108 36219 ft 425 kts 307°
2026-05-06 19:15 41.51038 -109.85007 36191 ft 425 kts 307°
2026-05-06 19:15 41.53920 -109.91902 36207 ft 425 kts 307°
2026-05-06 19:16 41.56805 -109.98796 36202 ft 425 kts 307°
2026-05-06 19:16 41.59679 -110.05701 36210 ft 425 kts 307°
2026-05-06 19:17 41.62521 -110.12571 36198 ft 425 kts 307°
2026-05-06 19:17 41.65391 -110.19489 36200 ft 425 kts 307°
2026-05-06 19:18 41.68256 -110.26413 36215 ft 424 kts 307°
2026-05-06 19:18 41.71092 -110.33296 36230 ft 424 kts 307°
2026-05-06 19:19 41.73937 -110.40220 36238 ft 424 kts 307°
2026-05-06 19:19 41.76777 -110.47146 36247 ft 424 kts 306°
2026-05-06 19:20 41.79612 -110.54076 36227 ft 424 kts 306°
2026-05-06 19:20 41.82442 -110.61004 36247 ft 424 kts 306°
2026-05-06 19:21 41.85275 -110.67941 36178 ft 423 kts 306°
2026-05-06 19:21 41.88104 -110.74896 36180 ft 424 kts 306°
2026-05-06 19:22 41.90924 -110.81852 36142 ft 424 kts 306°
2026-05-06 19:22 41.93722 -110.88771 36156 ft 424 kts 306°
2026-05-06 19:23 41.96546 -110.95762 36168 ft 424 kts 306°
2026-05-06 19:23 41.99358 -111.02734 36161 ft 424 kts 306°
2026-05-06 19:24 42.02172 -111.09723 36170 ft 425 kts 306°
2026-05-06 19:24 42.04978 -111.16722 36137 ft 425 kts 305°
2026-05-06 19:25 42.07757 -111.23697 36152 ft 425 kts 305°
2026-05-06 19:25 42.10556 -111.30720 36160 ft 425 kts 305°
2026-05-06 19:26 42.13353 -111.37748 36164 ft 425 kts 305°
2026-05-06 19:26 42.16145 -111.44781 36168 ft 426 kts 305°
2026-05-06 19:27 42.18938 -111.51843 36174 ft 426 kts 305°
2026-05-06 19:27 42.21711 -111.58846 36172 ft 426 kts 305°
2026-05-06 19:28 42.24501 -111.65919 36177 ft 426 kts 304°
2026-05-06 19:28 42.27268 -111.72963 36174 ft 425 kts 304°
2026-05-06 19:29 42.30037 -111.80027 36151 ft 425 kts 304°
2026-05-06 19:29 42.32795 -111.87085 36169 ft 425 kts 304°
2026-05-06 19:30 42.35546 -111.94146 36166 ft 424 kts 304°
2026-05-06 19:30 42.38284 -112.01175 36175 ft 424 kts 304°
2026-05-06 19:31 42.41030 -112.08242 36164 ft 424 kts 304°
2026-05-06 19:31 42.45140 -112.18840 36153 ft 423 kts 304°
2026-05-06 19:32 42.47859 -112.25870 36155 ft 424 kts 304°
2026-05-06 19:32 42.50587 -112.32963 36149 ft 424 kts 304°
2026-05-06 19:33 42.53311 -112.40050 36156 ft 424 kts 304°
2026-05-06 19:33 42.56030 -112.47154 36121 ft 424 kts 304°
2026-05-06 19:34 42.58731 -112.54221 36139 ft 424 kts 303°
2026-05-06 19:34 42.61443 -112.61341 36146 ft 424 kts 303°
2026-05-06 19:35 42.64155 -112.68471 36147 ft 424 kts 303°
2026-05-06 19:35 42.66842 -112.75558 36147 ft 424 kts 303°
2026-05-06 19:36 42.69542 -112.82700 36136 ft 424 kts 303°
2026-05-06 19:36 42.72238 -112.89836 36148 ft 423 kts 303°
2026-05-06 19:37 42.74908 -112.96927 36160 ft 423 kts 303°
2026-05-06 19:37 42.77140 -113.02877 36153 ft 423 kts 303°
2026-05-06 19:38 42.80272 -113.11232 36150 ft 423 kts 303°
2026-05-06 19:38 42.82937 -113.18365 36150 ft 422 kts 303°
2026-05-06 19:39 42.85575 -113.25462 36148 ft 421 kts 303°
2026-05-06 19:39 42.88234 -113.32596 36153 ft 421 kts 303°
2026-05-06 19:40 42.90884 -113.39729 36130 ft 421 kts 303°
2026-05-06 19:40 42.93509 -113.46832 36141 ft 420 kts 302°
2026-05-06 19:41 42.96140 -113.53964 36146 ft 420 kts 302°
2026-05-06 19:41 42.98763 -113.61097 36148 ft 419 kts 302°
2026-05-06 19:42 43.01386 -113.68233 36151 ft 419 kts 302°
2026-05-06 19:42 43.03982 -113.75325 36149 ft 419 kts 302°
2026-05-06 19:43 43.06590 -113.82470 36141 ft 419 kts 302°
2026-05-06 19:43 43.09176 -113.89566 36142 ft 418 kts 302°
2026-05-06 19:44 43.11780 -113.96728 36112 ft 419 kts 302°
2026-05-06 19:44 43.14360 -114.03852 36115 ft 420 kts 301°
2026-05-06 19:45 43.16707 -114.11214 36107 ft 425 kts 290°
2026-05-06 19:45 43.17451 -114.15047 35742 ft 411 kts 290°
2026-05-06 19:45 43.18188 -114.18859 34521 ft 414 kts 290°
2026-05-06 19:46 43.18929 -114.22669 33415 ft 413 kts 290°
2026-05-06 19:46 43.19664 -114.26453 32417 ft 409 kts 290°
2026-05-06 19:46 43.20380 -114.30146 31480 ft 404 kts 290°
2026-05-06 19:46 43.21095 -114.33848 30565 ft 399 kts 290°
2026-05-06 19:47 43.21805 -114.37511 29603 ft 395 kts 290°
2026-05-06 19:47 43.22506 -114.41137 28607 ft 389 kts 290°
2026-05-06 19:47 43.23189 -114.44690 28033 ft 376 kts 290°
2026-05-06 19:47 43.23830 -114.48064 27697 ft 367 kts 291°
2026-05-06 19:48 43.24477 -114.51444 27310 ft 365 kts 291°
2026-05-06 19:48 43.25123 -114.54807 26921 ft 363 kts 291°
2026-05-06 19:48 43.25765 -114.58149 26534 ft 362 kts 290°
2026-05-06 19:48 43.26406 -114.61495 26138 ft 360 kts 290°
2026-05-06 19:49 43.26826 -114.63695 25879 ft 359 kts 290°
2026-05-06 19:49 43.27457 -114.67002 25476 ft 357 kts 290°
2026-05-06 19:49 43.28086 -114.70294 25067 ft 356 kts 290°
2026-05-06 19:49 43.28708 -114.73571 24667 ft 354 kts 290°
2026-05-06 19:50 43.29328 -114.76851 24257 ft 353 kts 290°
2026-05-06 19:50 43.29943 -114.80110 23848 ft 351 kts 290°
2026-05-06 19:50 43.30549 -114.83324 23419 ft 350 kts 290°
2026-05-06 19:50 43.31156 -114.86539 23010 ft 346 kts 290°
2026-05-06 19:51 43.31754 -114.89718 22603 ft 342 kts 290°
2026-05-06 19:51 43.32345 -114.92863 22198 ft 338 kts 290°
2026-05-06 19:51 43.32927 -114.95965 21828 ft 334 kts 290°
2026-05-06 19:51 43.33501 -114.99048 21445 ft 331 kts 290°
2026-05-06 19:52 43.34070 -115.02101 21076 ft 328 kts 290°
2026-05-06 19:52 43.34636 -115.05125 20703 ft 325 kts 290°
2026-05-06 19:52 43.35197 -115.08121 20332 ft 323 kts 290°
2026-05-06 19:52 43.35760 -115.11125 19965 ft 333 kts 290°
2026-05-06 19:53 43.36376 -115.14340 19561 ft 370 kts 290°
2026-05-06 19:53 43.37056 -115.17908 19123 ft 393 kts 289°
2026-05-06 19:53 43.37758 -115.21647 18660 ft 417 kts 289°
2026-05-06 19:53 43.38472 -115.25546 18141 ft 422 kts 289°
2026-05-06 19:54 43.39176 -115.29469 17475 ft 420 kts 288°
2026-05-06 19:54 43.39872 -115.33362 17017 ft 418 kts 288°
2026-05-06 19:54 43.40572 -115.37239 16547 ft 417 kts 288°
2026-05-06 19:54 43.41275 -115.41094 16072 ft 414 kts 288°
2026-05-06 19:55 43.41979 -115.44926 15617 ft 412 kts 288°
2026-05-06 19:55 43.42675 -115.48724 15164 ft 408 kts 288°
2026-05-06 19:55 43.43367 -115.52507 14706 ft 405 kts 287°
2026-05-06 19:55 43.44042 -115.56202 14263 ft 402 kts 287°
2026-05-06 19:56 43.44824 -115.59870 13797 ft 396 kts 295°
2026-05-06 19:56 43.45935 -115.63325 13339 ft 394 kts 296°
2026-05-06 19:56 43.47053 -115.66761 12896 ft 392 kts 296°
2026-05-06 19:56 43.48163 -115.70174 12459 ft 389 kts 296°
2026-05-06 19:57 43.49267 -115.73572 12014 ft 387 kts 296°
2026-05-06 19:57 43.50362 -115.76947 11575 ft 385 kts 296°
2026-05-06 19:57 43.51457 -115.80320 11141 ft 383 kts 296°
2026-05-06 19:57 43.52531 -115.83622 10719 ft 381 kts 296°
2026-05-06 19:58 43.53611 -115.86953 10274 ft 379 kts 295°
2026-05-06 19:58 43.54680 -115.90269 9838 ft 374 kts 295°
2026-05-06 19:58 43.55724 -115.93516 9381 ft 361 kts 294°
2026-05-06 19:58 43.56699 -115.96560 8934 ft 334 kts 295°
2026-05-06 19:59 43.57606 -115.99398 8481 ft 314 kts 295°
2026-05-06 19:59 43.58467 -116.02081 8072 ft 296 kts 294°
2026-05-06 19:59 43.59273 -116.04582 7711 ft 283 kts 295°
2026-05-06 19:59 43.60079 -116.07004 7298 ft 272 kts 296°
2026-05-06 20:00 43.60877 -116.09319 6936 ft 260 kts 296°
2026-05-06 20:00 43.61649 -116.11540 6574 ft 253 kts 295°
2026-05-06 20:00 43.62397 -116.13697 6193 ft 244 kts 295°
2026-05-06 20:00 43.63117 -116.15776 5822 ft 236 kts 294°
2026-05-06 20:01 43.63820 -116.17820 5446 ft 230 kts 294°
2026-05-06 20:01 43.64478 -116.19743 5133 ft 215 kts 294°
2026-05-06 20:01 43.65091 -116.21539 4934 ft 199 kts 294°
2026-05-06 20:01 43.65663 -116.23217 4680 ft 188 kts 294°
2026-05-06 20:02 43.66227 -116.24871 4680 ft 196 kts 294°
2026-05-06 20:02 43.66729 -116.26638 4685 ft 199 kts 281°
2026-05-06 20:02 43.66795 -116.28540 4691 ft 198 kts 261°
2026-05-06 20:02 43.66400 -116.30349 4688 ft 197 kts 242°
2026-05-06 20:03 43.65600 -116.31867 4693 ft 196 kts 223°
2026-05-06 20:03 43.64488 -116.32937 4691 ft 195 kts 203°
2026-05-06 20:03 43.63187 -116.33447 4696 ft 194 kts 185°
2026-05-06 20:03 43.61890 -116.33350 4673 ft 177 kts 166°
2026-05-06 20:04 43.60808 -116.32697 4523 ft 171 kts 146°
2026-05-06 20:04 43.59909 -116.31677 4251 ft 160 kts 138°
2026-05-06 20:04 43.59153 -116.30625 4059 ft 150 kts 128°
2026-05-06 20:04 43.58677 -116.29355 3830 ft 149 kts 112°
2026-05-06 20:05 43.58283 -116.28013 3583 ft 148 kts 115°
2026-05-06 20:05 43.57860 -116.26737 3413 ft 146 kts 117°
2026-05-06 20:05 43.57426 -116.25478 3130 ft 144 kts 116°
2026-05-06 20:05 43.57000 -116.24247 2905 ft 143 kts 117°
2026-05-06 20:06 43.56623 -116.23149 2882 ft 104 kts 115°
2026-05-06 20:06 43.56408 -116.22522 2881 ft 29 kts 113°
2026-05-06 20:06 43.56444 -116.22425 2881 ft 15 kts 11°
2026-05-06 20:06 43.56557 -116.22414 2881 ft 17 kts
2026-05-06 20:07 43.56665 -116.22394 2881 ft 12 kts 34°
2026-05-06 20:07 43.56660 -116.22279 2881 ft 14 kts 115°
2026-05-06 20:07 43.56614 -116.22145 2881 ft 17 kts 115°
2026-05-06 20:07 43.56562 -116.21993 2881 ft 19 kts 115°
2026-05-06 20:08 43.56503 -116.21824 2881 ft 14 kts 117°
2026-05-06 20:08 43.56516 -116.21739 2881 ft 10 kts 29°
2026-05-06 20:08 43.56592 -116.21740 2881 ft 12 kts 355°
2026-05-06 20:08 43.56684 -116.21752 2881 ft 14 kts 355°
2026-05-06 20:09 43.56782 -116.21767 2881 ft 13 kts 339°
2026-05-06 20:09 43.56814 -116.21874 2881 ft 6 kts 277°
2026-05-06 20:09 43.56783 -116.21909 2881 ft 7 kts 197°
2026-05-06 20:09 43.56769 -116.21914 2881 ft 2 kts 197°
2026-05-06 20:10 43.56760 -116.21918 2881 ft 0 kts 198°